{"data":{"norad_id":48097,"epoch":"2026-09-20T04:46:34.547808Z","epoch_age_seconds":55852,"freshness":"FRESH","line1":"1 48097U 21027F   26263.19901097  .00027154  00000+0  85416-3 0  9990","line2":"2 48097  53.1578 327.6395 0002573  37.9799 322.1384 15.32785636302481","mean_motion":15.32785636,"eccentricity":0.0002573,"inclination_deg":53.1578,"raan_deg":327.6395,"arg_perigee_deg":37.9799,"mean_anomaly_deg":322.1384,"bstar":0.00085416,"rev_number":30248,"period_min":93.946600632158,"perigee_km":465.74429720808,"apogee_km":469.26706493175,"semimajor_km":6845.6426810699,"source":"CELESTRAK","updated_at":"2026-09-20T09:00:38.761673Z"}}